Location: Bathurst
(33.4193°S, 149.5775°E)
Time: 02:34:59
(UTC+10:00)

A-11 Canister half - Pass Details

Date: 13 June 2021
Orbit: 1513 x 1687 km, 47.2° (Epoch: 28 July)

Event Time Altitude Azimuth Distance (km) Brightness Sun altitude
Rises 20:44:06 0° 257° (WSW) 4,764 12.3 -45.7°
Reaches altitude 10° 20:47:32 10° 248° (WSW) 3,807 11.6 -46.4°
Enters shadow 20:53:28 31° 215° (SW) 2,556 10.2 -47.7°
